Weather History for KALS - October, 2010

Change the Weather History Date:

Sunday, October 24, 2010

  Actual Average Record
Temperature  
Mean Temperature 42 °F 40 °F  
Max Temperature 58 °F 59 °F 71 °F (2014)
Min Temperature 26 °F 22 °F -8 °F (1945)
Degree Days  
Heating Degree Days 23 25  
Month to date heating degree days 411 492  
Since 1 July heating degree days 671 923  
Cooling Degree Days 0 0  
Month to date cooling degree days 0 0  
Year to date cooling degree days 128 51  
Moisture  
Dew Point 31 °F    
Average Humidity 63    
Maximum Humidity 92    
Minimum Humidity 33    
Precipitation  
Precipitation 0.00 in 0.03 in 0.33 in (1945)
Month to date precipitation 0.54 0.54  
Year to date precipitation 5.44 6.40  
Snow  
Snow 0.00 in 0.10 in 0.80 in (1997)
Month to date snowfall 0.0 1.3  
Since 1 July snowfall 0.0 1.3  
Since 1 September snowfall 0.0 1.3  
Snow Depth 0.00 in    
Sea Level Pressure  
Sea Level Pressure 29.90 in    
Wind  
Wind Speed 6 mph (South)    
Max Wind Speed 18 mph    
Max Gust Speed 24 mph    
Visibility 10 miles    
Events      
T = Trace of Precipitation, MM = Missing Value Source: NWS Daily Summary

Daily Weather History Graph

Daily Weather History Graph

Search for Another Location

Airport or City:

Trip Planner

Search our weather history database for the weather conditions in past years. The results will help you decide how hot, cold, wet, or windy it might be!

Date:

Astronomy

Oct. 24, 2010 Rise Set
Actual Time 7:20 AM MDT 6:14 PM MDT
Civil Twilight 6:53 AM MDT 6:41 PM MDT
Nautical Twilight 6:22 AM MDT 7:11 PM MDT
Astronomical Twilight 5:52 AM MDT 7:41 PM MDT
Moon 7:02 PM MDT (10/24) 9:01 AM MDT (10/24)
Length of Visible Light 11h 47m
Length of Day
10h 54m
Full, 97% of the Moon is Illuminated
Oct 24
Full
Oct 30
Last Quarter
Nov 5
New
Nov 13
First Quarter
Nov 21
Full

Hourly Weather History & Observations

Time (MDT) Temp. Windchill Dew Point Humidity Pressure Visibility Wind Dir Wind Speed Gust Speed Precip Events Conditions
12:52 AM 34.0 °F 31.0 °F 30.9 °F 89% 29.94 in 10.0 mi East 3.5 mph - N/A   Clear
1:52 AM 33.1 °F 27.7 °F 30.0 °F 89% 29.93 in 10.0 mi South 5.8 mph - N/A   Clear
2:52 AM 30.0 °F - 28.0 °F 92% 29.95 in 10.0 mi Calm Calm - N/A   Clear
3:52 AM 32.0 °F - 30.0 °F 92% 29.94 in 10.0 mi Calm Calm - N/A   Partly Cloudy
4:52 AM 28.9 °F 21.9 °F 27.0 °F 92% 29.95 in 10.0 mi SW 6.9 mph - N/A   Mostly Cloudy
5:52 AM 28.9 °F - 27.0 °F 92% 29.98 in 10.0 mi Calm Calm - N/A   Clear
6:52 AM 26.1 °F - 25.0 °F 96% 30.03 in 10.0 mi Calm Calm - N/A   Clear
7:52 AM 28.9 °F 23.9 °F 27.0 °F 92% 30.00 in 10.0 mi SSE 4.6 mph - N/A   Clear
8:52 AM 35.1 °F - 32.0 °F 89% 30.03 in 10.0 mi Calm Calm - N/A   Clear
9:52 AM 41.0 °F - 35.1 °F 79% 30.01 in 10.0 mi Calm Calm - N/A   Partly Cloudy
10:52 AM 48.0 °F - 30.9 °F 52% 29.98 in 10.0 mi Calm Calm - N/A   Partly Cloudy
11:52 AM 53.1 °F - 30.0 °F 41% 29.93 in 10.0 mi NE 4.6 mph - N/A   Partly Cloudy
12:52 PM 54.0 °F - 28.9 °F 38% 29.91 in 10.0 mi SSE 4.6 mph - N/A   Mostly Cloudy
1:52 PM 55.9 °F - 28.9 °F 36% 29.87 in 10.0 mi ENE 8.1 mph - N/A   Mostly Cloudy
2:52 PM 57.0 °F - 28.9 °F 34% 29.86 in 10.0 mi ENE 10.4 mph - N/A   Scattered Clouds
3:52 PM 57.0 °F - 28.9 °F 34% 29.81 in 10.0 mi ESE 8.1 mph - N/A   Clear
4:52 PM 55.9 °F - 28.9 °F 36% 29.83 in 10.0 mi WSW 4.6 mph - N/A   Partly Cloudy
5:52 PM 53.1 °F - 34.0 °F 48% 29.84 in 10.0 mi WSW 6.9 mph - N/A   Scattered Clouds
6:52 PM 48.0 °F - 34.0 °F 58% 29.88 in 10.0 mi SW 8.1 mph - N/A   Clear
7:52 PM 45.0 °F 39.7 °F 34.0 °F 65% 29.89 in 10.0 mi SSW 10.4 mph - N/A   Clear
8:52 PM 44.1 °F 38.6 °F 35.1 °F 71% 29.86 in 10.0 mi South 10.4 mph - N/A   Partly Cloudy
9:52 PM 44.1 °F 38.1 °F 35.1 °F 71% 29.81 in 10.0 mi South 11.5 mph - N/A   Clear
10:52 PM 43.0 °F 36.8 °F 34.0 °F 71% 29.77 in 10.0 mi South 11.5 mph - N/A   Clear
11:52 PM 44.1 °F 37.1 °F 35.1 °F 71% 29.69 in 10.0 mi South 15.0 mph - N/A   Partly Cloudy